Hourly Data Report for May 20, 2022

FLIN FLON
MANITOBA
Current Station Operator: ECCC - MSC

54°41'00.000" N
101°41'00.000" W
303.90 m
5050919
71954
WFO

Download Data

Hourly Data (May 2022)
Hourly Data Report for May 20, 2022
TIME
LST
Temp Definition
°C
Dew Point Definition
°C
Rel Hum Definition
%
Precip. Amount Definition
mm

Wind Dir Definition
10's deg

Wind Spd Definition
km/h
Visibility Definition
km
Stn Press Definition
kPa
Hmdx Definition


Wind Chill Definition


Weather Definition


00:00 3.0 -3.8 61 0.0 3 20   97.22     LegendNANA
01:00 2.3 -4.2 62 0.0 3 24   97.27     LegendNANA
02:00 1.5 -4.2 66 0.0 3 21   97.30     LegendNANA
03:00 1.3 -4.5 65 0.0 2 18   97.33     LegendNANA
04:00 1.3 -4.5 65 0.0 2 17   97.34     LegendNANA
05:00 1.2 -4.8 64 0.0 2 21   97.38     LegendNANA
06:00 0.4 -4.3 70 0.0 2 24   97.43     LegendNANA
07:00 0.6 -4.0 71 0.0 2 21   97.48     LegendNANA
08:00 0.9 -3.2 74 0.0 1 24   97.51     LegendNANA
09:00 1.2 -3.7 70 0.0 1 19   97.55     LegendNANA
10:00 1.7 -4.0 66 0.0 2 27   97.58     LegendNANA
11:00 2.8 -4.2 60 0.0 2 22   97.61     LegendNANA
12:00 3.3 -4.1 58 0.0 1 29   97.64     LegendNANA
13:00 3.5 -4.0 58 0.0 1 24   97.67     LegendNANA
14:00 4.0 -3.6 58 0.0 1 22   97.72     LegendNANA
15:00 4.4 -3.4 57 0.0 2 28   97.77     LegendNANA
16:00 5.5 -2.4 57 0.0 34 19   97.78     LegendNANA
17:00 6.5 -3.4 49 0.0 36 18   97.79     LegendNANA
18:00 7.5 -5.6 39 0.0 35 22   97.79     LegendNANA
19:00 7.8 -5.7 38 0.0 35 24   97.80     LegendNANA
20:00 8.1 -6.3 35 0.0 35 20   97.84     LegendNANA
21:00 6.5 -6.1 40 0.0 36 17   97.90     LegendNANA
22:00 5.2 -5.7 45 0.0 34 16   97.97     LegendNANA
23:00 4.2 -4.5 53 0.0 34 15   98.03     LegendNANA

Notes on Data Quality.

Legend

  • E = Estimated
  • M = Missing
  • NA = Not Available*
  • [empty] = Indicates an unobserved value
Date modified: